This is the latest recevied weather packets stored in our database for station/object I1SXT-13. If no packets are shown the sender has not sent any weather packets the latest 10 day(s).
| Time | Temp. | Humidity | Pressure | Rain* | Wind** | Luminosity | Snow |
|---|---|---|---|---|---|---|---|
| 1777857866 | 12.22° C | 67% | 1019.2 hPa | 0 mm | - | - | - |
| 1777857569 | 12.22° C | 69% | 1019.9 hPa | 0 mm | - | - | - |
| 1777857265 | 11.67° C | 73% | 1019.7 hPa | 0 mm | - | - | - |
| 1777856968 | 11.67° C | 72% | 1020 hPa | 0 mm | - | - | - |
| 1777856664 | 12.78° C | 66% | 1019 hPa | 0 mm | - | - | - |
| 1777856366 | 12.22° C | 70% | 1019.6 hPa | 0 mm | - | - | - |
| 1777856069 | 12.22° C | 70% | 1019.9 hPa | 0 mm | - | - | - |
| 1777855766 | 11.67° C | 72% | 1019.5 hPa | 0 mm | - | - | - |
| 1777855468 | 11.67° C | 74% | 1019.7 hPa | 0 mm | - | - | - |
| 1777855164 | 11.11° C | 75% | 1019.3 hPa | 0 mm | - | - | - |
| 1777854867 | 11.11° C | 75% | 1019.6 hPa | 0 mm | - | - | - |
| 1777854570 | 11.67° C | 73% | 1019.4 hPa | 0 mm | - | - | - |
| 1777854266 | 11.11° C | 75% | 1019.7 hPa | 0 mm | - | - | - |
| 1777853969 | 11.67° C | 74% | 1019.9 hPa | 0 mm | - | - | - |
| 1777853665 | 12.22° C | 71% | 1019.9 hPa | 0 mm | - | - | - |
| 1777853368 | 13.33° C | 64% | 1018.6 hPa | 0 mm | - | - | - |
| 1777853064 | 13.33° C | 60% | 1019.7 hPa | 0 mm | - | - | - |
| 1777852767 | 13.33° C | 61% | 1019.5 hPa | 0 mm | - | - | - |
| 1777852165 | 12.78° C | 64% | 1019.8 hPa | 0 mm | - | - | - |
| 1777851868 | 12.22° C | 68% | 1019.6 hPa | 0 mm | - | - | - |
| 1777851564 | 12.22° C | 71% | 1019.7 hPa | 0 mm | - | - | - |
| 1777851267 | 12.78° C | 70% | 1019.7 hPa | 0 mm | - | - | - |
| 1777850970 | 12.78° C | 68% | 1019.7 hPa | 0 mm | - | - | - |
| 1777850666 | 12.78° C | 70% | 1019.7 hPa | 0 mm | - | - | - |
| 1777850369 | 12.78° C | 68% | 1019.7 hPa | 0 mm | - | - | - |
* Rain since midnight (hover to see other rain measurements)
** Current wind speed in m/s (hover to see current wind gust speed)